Date String (YYYY-MM-DD hh:mm:ss) UTC,Instrument flags,Ambient pressure (hPa),Sample flow (lpm),Bypass flow (lpm),Sample temperature (°C),Ambient temperature (°C),ASC tube jacket temperature (°C),LED temperature (°C),Box temperature (°C),Sample RH (%),Span deviation,Mass concentration (μg/m³),Mass concentration (μg/m³),Mass concentration (μg/m³)
DateTimeUTC,F1_M11,P_M11,Q1_M11,Q2_M11,T1_M11,T2_M11,T3_M11,T4_M11,T5_M11,U1_M11,ZSPAN_M11,X0_M11,X2_M11,X1_M11
2021-12-07 23:00:00,,0818.8,5.01,0.00,24.3,23.6,00.0,33.2,26.1,10.0,0000.0,0004.02,0000.84,0000.36
2021-12-07 23:01:00,,0818.8,4.99,0.00,24.3,23.6,00.0,33.2,26.0,10.2,0000.0,0003.35,0000.82,0000.37
2021-12-07 23:02:00,,0818.9,5.00,0.00,24.3,23.6,00.0,33.2,26.1,10.2,0000.0,0002.48,0000.81,0000.36
2021-12-07 23:03:00,,0818.8,5.01,0.00,24.3,23.5,00.0,33.2,26.1,10.2,0000.0,0002.40,0000.85,0000.36
2021-12-07 23:04:00,,0818.9,4.98,0.00,24.3,23.6,00.0,33.2,26.1,10.0,0000.0,0002.31,0000.84,0000.36
2021-12-07 23:05:00,,0818.9,5.00,0.00,24.3,23.6,00.0,33.2,26.1,10.0,0000.0,0002.12,0000.79,0000.35
2021-12-07 23:06:00,,0818.9,5.01,0.00,24.3,23.6,00.0,33.2,26.1,10.0,0000.0,0002.05,0000.79,0000.35
2021-12-07 23:07:00,,0818.9,5.00,0.00,24.3,23.6,00.0,33.3,26.1,09.9,0000.0,0002.30,0000.78,0000.35
2021-12-07 23:08:00,,0818.9,4.99,0.00,24.3,23.6,00.0,33.3,26.2,09.8,0000.0,0002.26,0000.78,0000.35
2021-12-07 23:09:00,,0818.9,5.00,0.00,24.4,23.6,00.0,33.3,26.2,09.9,0000.0,0002.21,0000.78,0000.35
2021-12-07 23:10:00,,0818.9,5.00,0.00,24.4,23.6,00.0,33.3,26.1,09.8,0000.0,0003.21,0000.76,0000.35
2021-12-07 23:11:00,,0818.9,5.00,0.00,24.4,23.6,00.0,33.3,26.1,09.9,0000.0,0004.30,0000.75,0000.35
2021-12-07 23:12:00,,0819.0,4.99,0.00,24.4,23.6,00.0,33.3,26.2,10.0,0000.0,0005.52,0000.76,0000.34
2021-12-07 23:13:00,,0818.9,5.00,0.00,24.4,23.6,00.0,33.3,26.2,10.1,0000.0,0005.75,0000.72,0000.35
2021-12-07 23:14:00,,0819.0,5.00,0.00,24.4,23.6,00.0,33.3,26.2,10.1,0000.0,0005.64,0000.68,0000.35
2021-12-07 23:15:00,,0819.0,5.01,0.00,24.4,23.6,00.0,33.3,26.2,10.0,0000.0,0006.05,0000.68,0000.34
2021-12-07 23:16:00,,0819.0,4.99,0.00,24.4,23.7,00.0,33.3,26.3,10.0,0000.0,0006.82,0000.66,0000.35
2021-12-07 23:17:00,,0819.0,4.99,0.00,24.4,23.7,00.0,33.3,26.3,10.0,0000.0,0007.12,0000.64,0000.35
2021-12-07 23:18:00,,0818.9,5.00,0.00,24.4,23.7,00.0,33.4,26.3,10.0,0000.0,0006.91,0000.65,0000.35
2021-12-07 23:19:00,,0818.9,5.00,0.00,24.4,23.7,00.0,33.4,26.3,10.1,0000.0,0006.73,0000.64,0000.35
2021-12-07 23:20:00,,0818.9,5.01,0.00,24.4,23.7,00.0,33.4,26.3,10.0,0000.0,0007.03,0000.63,0000.34
2021-12-07 23:21:00,,0818.9,5.00,0.00,24.4,23.7,00.0,33.4,26.3,10.0,0000.0,0006.80,0000.65,0000.33
2021-12-07 23:22:00,,0818.9,5.00,0.00,24.5,23.7,00.0,33.4,26.3,09.9,0000.0,0006.04,0000.75,0000.34
2021-12-07 23:23:00,,0819.0,5.00,0.00,24.4,23.7,00.0,33.4,26.3,09.9,0000.0,0006.50,0000.75,0000.34
2021-12-07 23:24:00,,0819.0,4.98,0.00,24.4,23.7,00.0,33.4,26.3,09.9,0000.0,0005.66,0000.75,0000.33
2021-12-07 23:25:00,,0819.0,5.01,0.00,24.4,23.7,00.0,33.4,26.3,09.9,0000.0,0005.71,0000.76,0000.33
2021-12-07 23:26:00,,0818.9,5.02,0.00,24.4,23.7,00.0,33.4,26.2,09.9,0000.0,0005.51,0000.77,0000.33
2021-12-07 23:27:00,,0819.0,4.99,0.00,24.4,23.7,00.0,33.4,26.2,09.9,0000.0,0004.58,0000.76,0000.33
2021-12-07 23:28:00,,0819.0,5.00,0.00,24.4,23.7,00.0,33.4,26.3,10.0,0000.0,0004.09,0000.76,0000.32
2021-12-07 23:29:00,,0819.0,5.00,0.00,24.4,23.7,00.0,33.4,26.2,09.9,0000.0,0004.13,0000.77,0000.33
2021-12-07 23:30:00,,0819.1,4.99,0.00,24.4,23.7,00.0,33.4,26.2,09.9,0000.0,0004.30,0000.80,0000.33
2021-12-07 23:31:00,,0819.0,5.00,0.00,24.4,23.7,00.0,33.4,26.2,09.9,0000.0,0004.16,0000.81,0000.33
2021-12-07 23:32:00,,0819.0,5.00,0.00,24.4,23.6,00.0,33.4,26.2,09.9,0000.0,0004.26,0000.85,0000.33
2021-12-07 23:33:00,,0819.1,4.99,0.00,24.4,23.6,00.0,33.4,26.2,09.9,0000.0,0003.49,0000.76,0000.32
2021-12-07 23:34:00,,0819.1,5.00,0.00,24.4,23.6,00.0,33.4,26.1,09.9,0000.0,0001.81,0000.75,0000.32
2021-12-07 23:35:00,,0819.1,5.00,0.00,24.4,23.6,00.0,33.4,26.1,09.9,0000.0,0001.94,0000.79,0000.32
2021-12-07 23:36:00,,0819.1,5.00,0.00,24.4,23.6,00.0,33.4,26.2,09.8,0000.0,0002.22,0000.85,0000.32
2021-12-07 23:37:00,,0819.1,4.99,0.00,24.4,23.7,00.0,33.4,26.2,09.7,0000.0,0002.32,0000.85,0000.32
2021-12-07 23:38:00,,0819.1,4.99,0.00,24.4,23.6,00.0,33.4,26.2,09.7,0000.0,0002.60,0000.86,0000.32
2021-12-07 23:39:00,,0819.1,5.01,0.00,24.4,23.6,00.0,33.4,26.2,09.7,0000.0,0003.15,0000.90,0000.33
2021-12-07 23:40:00,,0819.0,4.99,0.00,24.4,23.6,00.0,33.4,26.2,09.7,0000.0,0003.49,0000.87,0000.33
2021-12-07 23:41:00,,0819.1,4.99,0.00,24.4,23.6,00.0,33.4,26.2,09.7,0000.0,0003.33,0000.84,0000.32
2021-12-07 23:42:00,,0819.1,4.99,0.00,24.4,23.6,00.0,33.4,26.2,09.7,0000.0,0003.23,0000.85,0000.33
2021-12-07 23:43:00,,0819.2,5.01,0.00,24.4,23.6,00.0,33.3,26.2,09.7,0000.0,0003.08,0000.79,0000.32
2021-12-07 23:44:00,,0819.3,5.01,0.00,24.4,23.6,00.0,33.3,26.2,09.6,0000.0,0003.48,0000.77,0000.32
2021-12-07 23:45:00,,0819.2,5.00,0.00,24.4,23.6,00.0,33.3,26.2,09.6,0000.0,0004.01,0000.79,0000.33
2021-12-07 23:46:00,,0819.3,5.00,0.00,24.4,23.6,00.0,33.3,26.2,09.5,0000.0,0003.95,0000.78,0000.33
2021-12-07 23:47:00,,0819.2,5.01,0.00,24.4,23.6,00.0,33.3,26.2,09.5,0000.0,0003.82,0000.75,0000.34
2021-12-07 23:48:00,,0819.1,4.98,0.00,24.4,23.7,00.0,33.3,26.2,09.5,0000.0,0003.72,0000.73,0000.34
2021-12-07 23:49:00,,0819.0,5.01,0.00,24.4,23.6,00.0,33.3,26.2,09.5,0000.0,0003.92,0000.76,0000.34
2021-12-07 23:50:00,,0819.2,5.00,0.00,24.3,23.6,00.0,33.3,26.1,09.5,0000.0,0003.53,0000.79,0000.34
2021-12-07 23:51:00,,0819.1,5.00,0.00,24.3,23.6,00.0,33.3,26.1,09.5,0000.0,0003.20,0000.79,0000.33
2021-12-07 23:52:00,,0819.3,5.01,0.00,24.3,23.6,00.0,33.3,26.1,09.5,0000.0,0003.17,0000.78,0000.33
2021-12-07 23:53:00,,0819.3,5.01,0.00,24.3,23.6,00.0,33.3,26.1,09.5,0000.0,0003.11,0000.76,0000.33
2021-12-07 23:54:00,,0819.2,5.01,0.00,24.3,23.6,00.0,33.3,26.1,09.5,0000.0,0003.30,0000.78,0000.34
2021-12-07 23:55:00,,0819.2,4.99,0.00,24.3,23.6,00.0,33.3,26.1,09.5,0000.0,0002.97,0000.79,0000.35
2021-12-07 23:56:00,,0819.1,5.01,0.00,24.4,23.6,00.0,33.3,26.2,09.5,0000.0,0002.41,0000.80,0000.35
2021-12-07 23:57:00,,0819.2,5.00,0.00,24.4,23.6,00.0,33.3,26.2,09.5,0000.0,0002.33,0000.80,0000.35
2021-12-07 23:58:00,,0819.3,5.00,0.00,24.4,23.6,00.0,33.3,26.2,09.5,0000.0,0002.25,0000.76,0000.34
2021-12-07 23:59:00,,0819.3,5.01,0.00,24.4,23.7,00.0,33.3,26.2,09.5,0000.0,0002.42,0000.76,0000.34
